Location: Amsterdam
(30.7274°N, 84.4357°W)
Time: 06:20:55
(UTC+00:00)

Tiros 1 - Pass Details

Date: 21 February 2026
Orbit: 618 x 649 km, 48.4° (Epoch: 9 March)

Event Time Altitude Azimuth Distance (km) Brightness Sun altitude
Rises 12:30:30 0° 245° (WSW) 2,923 10.0 2.9°
Reaches altitude 10° 12:32:56 10° 252° (WSW) 2,011 9.2 3.4°
Maximum altitude 12:37:20 43° 324° (NW) 888 7.6 4.4°
Drops below altitude 10° 12:41:43 10° 36° (NE) 1,998 10.0 5.3°
Sets 12:44:08 0° 43° (NE) 2,902 10.9 5.8°
